Flag for China Weather past 2 weeks in Kashgar, Xinjiang, China

Now
73 °F

Sunny.


Feels Like: 74 °F
Forecast: 64 / 79 °F
Wind: 8 mph from North

Location: Kashi Airport

Current Time: Apr 26, 2015 at 1:11:02 PM

Latest Report: Apr 26, 2015 at 12:00 PM


Visibility: 10 mi

Pressure: 29.92 "Hg

Humidity: 13%

Dew point: 19 °F

Location of KashgarLocation

Historic Weather in Kashgar — Graph

°F

Kashgar temperature yesterday

Maximum temperature yesterday: 82 °F (at 4:00 PM)
Minimum temperature yesterday: 64 °F (at 5:00 AM)
Average temperature yesterday: 73 °F

Past Weeks' High & Low Weather Summary

 TemperatureHumidityPressure
High82 °F (Apr 24, 7:00 PM)82% (Apr 20, 3:00 AM)30.39 "Hg (Apr 20, 3:00 AM)
Low48 °F (Apr 20, 7:00 AM)7% (Apr 16, 5:00 PM)29.74 "Hg (Apr 15, 8:00 PM)
Average65 °F24%30.06 "Hg
* Reported Apr 11 12:00 Noon — Apr 26 12:00 Noon, Kashgar, Weather by CustomWeather, © 2015

Note: Actual official high and low records may vary slightly from our data, if they occured in-between our weather recording intervals... More about our weather records

Advertising

Kashgar weather history for previous 24 hours

 ConditionsComfort  
Time TempWeatherWind HumidityBarometerVisibility
12:00 PM
Sun, Apr 26
73 °FSunny.8 mph13%29.92 "Hg10 mi
11:00 AM72 °FSunny.8 mph15%29.95 "Hg10 mi
10:00 AM68 °FSunny.8 mph20%29.95 "Hg10 mi
9:00 AM64 °FSunny.10 mph24%29.95 "Hg10 mi
8:00 AM63 °FClear.10 mph25%29.95 "Hg10 mi
7:00 AM64 °FClear.13 mph22%29.95 "Hg10 mi
6:00 AM64 °FClear.8 mph22%29.95 "Hg10 mi
5:00 AM64 °FClear.10 mph22%29.98 "Hg10 mi
4:00 AM66 °FClear.10 mph21%29.98 "Hg10 mi
3:00 AM64 °FClear.8 mph22%29.98 "Hg10 mi
2:00 AM68 °FPassing clouds.6 mph14%29.98 "HgN/A
1:00 AM68 °FClear.3 mph18%29.98 "Hg10 mi
12:00 AM70 °FClear.6 mph15%29.98 "Hg10 mi
11:00 PM
Sat, Apr 25
73 °FClear.3 mph13%29.98 "Hg10 mi
10:00 PM77 °FClear.1 mph13%29.95 "Hg10 mi
9:00 PM79 °FSunny.6 mph11%29.95 "Hg10 mi
8:00 PM82 °FPassing clouds.6 mph9%29.95 "HgN/A
7:00 PM82 °FPassing clouds.6 mph9%29.95 "HgN/A
6:00 PM82 °FPassing clouds.8 mph10%29.95 "HgN/A
5:00 PM82 °FPassing clouds.6 mph8%29.98 "HgN/A
4:00 PM82 °FSunny.6 mph10%30.01 "Hg10 mi
3:00 PM81 °FPassing clouds.6 mph10%30.04 "HgN/A
2:00 PM79 °FSunny.6 mph12%30.07 "Hg10 mi
1:00 PM79 °FPassing clouds.6 mph17%30.09 "HgN/A
Weather by CustomWeather, © 2015

See weather overviewHow to use our weather pages